Home > Weather > Naples > Past weeks

Flag for U.S.A. Weather for the Past 2 Weeks in Naples, Florida, U.S.A.

Now
66 °F

Sunny.


Feels Like: 66 °F
Forecast: 51 / 72 °F
Wind: 6 mph from East

Location: Naples Municipal

Current Time: Feb 11, 2016 at 7:17:47 PM

Latest Report: Feb 11, 2016 at 5:53 PM


Visibility: 10 mi

Pressure: 30.26 "Hg

Humidity: 34%

Dew point: 37 °F

Location of NaplesLocation

Historic Weather in Naples — Graph

°F

Naples Temperature Yesterday

Maximum temperature yesterday: 63 °F (at 1:53 PM)
Minimum temperature yesterday: 51 °F (at 11:53 PM)
Average temperature yesterday: 58 °F

High & Low Weather Summary for the Past Weeks

 TemperatureHumidityPressure
High83 °F (Feb 2, 1:53 PM)100% (Jan 28, 5:53 PM)30.34 "Hg (Jan 28, 5:53 PM)
Low44 °F (Feb 11, 6:53 AM)31% (Feb 11, 3:53 PM)29.74 "Hg (Jan 28, 3:53 PM)
Average64 °F74%30.08 "Hg
* Reported Jan 28 2:53 PM — Feb 11 3:53 PM, Naples, Weather by CustomWeather, © 2016

Note: Actual official high and low records may vary slightly from our data, if they occured in-between our weather recording intervals... More about our weather records

Advertising

Naples Weather History for the Previous 24 Hours

 ConditionsComfort  
Time TempWeatherWind HumidityBarometerVisibility
3:53 PM
Thu, Feb 11
69 °FSunny.8 mph31%30.24 "Hg10 mi
2:53 PM69 °FSunny.N/A32%30.24 "Hg10 mi
1:53 PM68 °FSunny.9 mph32%30.26 "Hg10 mi
12:53 PM65 °FSunny.8 mph40%30.28 "Hg10 mi
11:53 AM64 °FSunny.9 mph40%30.32 "Hg10 mi
10:53 AM61 °FSunny.8 mph54%30.34 "Hg10 mi
9:53 AM56 °FSunny.12 mph70%30.33 "Hg10 mi
8:53 AM51 °FSunny.7 mph77%30.32 "Hg10 mi
7:53 AM45 °FSunny.No wind93%30.32 "Hg10 mi
6:53 AM44 °FClear.No wind93%30.29 "Hg10 mi
5:53 AM45 °FClear.No wind93%30.27 "Hg10 mi
4:53 AM45 °FClear.No wind93%30.25 "Hg10 mi
3:53 AM46 °FClear.No wind93%30.24 "Hg10 mi
2:53 AM48 °FClear.3 mph83%30.25 "Hg10 mi
1:53 AM48 °FClear.3 mph86%30.27 "Hg10 mi
12:53 AM49 °FClear.3 mph84%30.27 "Hg10 mi
11:53 PM
Wed, Feb 10
51 °FClear.No wind77%30.28 "Hg10 mi
10:53 PM52 °FClear.3 mph77%30.28 "Hg10 mi
9:53 PM53 °FClear.3 mph74%30.28 "Hg10 mi
8:53 PM54 °FClear.7 mph72%30.28 "Hg10 mi
7:53 PM55 °FClear.7 mph72%30.27 "Hg10 mi
Weather by CustomWeather, © 2016

See weather overviewHow to use our weather pages